THOR ABLESTAR DEB, 2620

Orbit data source: Space-Track

THOR ABLESTAR DEB, 2620 is space debris in LEO originally from a launch on Thu, 05 Dec 1963 UTC launched from the Air Force Western Test Range (AFWTR). Debris objects in space refer to the collection of defunct objects orbiting the Earth. Examples of debris include non-operational satellites, rocket bodies, and fragments generated from explosions, collisions, or faulty payload assembly.

Loading next visibility...
THOR ABLESTAR DEB details
Identifier
2620, 1963-049H
Orbit
LEO
Last TLE update18 hours ago
Origin
Flag of USUSAF SSD (US)
ManufacturerUnknown
MissionSpacecraft
Bus & MotorUnknown
MassUnknown
Launch date (UTC)
1963-12-05 (61 years ago)
Launch vehicleUnknown
Launch site
Air Force Western Test Range (AFWTR)
Object type
Payload
Rocket body
Debris
Shape & HBRUnknown
Radar Cross SectionSmall (<0.1 m²)

Expand to show TLE details & history

TLE from 18 hours ago
0 THOR ABLESTAR DEB
1 02620U 63049H   24355.72502626  .00000394  00000-0  52027-3 0  9996
2 02620  89.9147  77.3051 0014286 248.1522 265.4788 13.59392799 16541
Epoch: 2024-12-20T17:24Z
Definitive object data (Epoch: 2024-12-20T17:24:02.268Z)
Latitude26.56533°
Longitude-93.5332°
Altitude1,042.051 km
Speed7.333 km/s
True Right ascension17h 09m 03s
True Declination26° 25' 60"
Sunlit
Object was in daylight at TLE epoch
Visualization TLE readout
Latitude-85.51858°
Longitude-92.41459°
Altitude1,056.646 km
Speed7.328 km/s
Apparent Right ascension22h 12m 12s
Apparent Declination-66° 20' 44"
Sunlit
Object is in daylight
Visualization observer readout
Local Sidereal Time10:38:33
Azimuth174.119° S
Elevation-63.31°
Doppler factor1
Orbital elements
Apogee altitude1,045.526 km
Perigee altitude1,024.345 km
Semi-major axis7,413.073 km
Eccentricity0.0014286
Inclination89.9147°
RAAN77.3051°
Arg. of periapsis248.1522°
True anomaly265.31563°
Mean anomaly265.4788°
Eccentric anomaly265.39721°
Mean motion3.40052 °/min
BSTAR0.00052027
Orbital period105.87 mins
Loading maneuver chart data...
Loading historical data...
Loading historical data...
Loading historical data...
Loading historical data...
Loading historical data...
Loading historical data...
Loading historical data...

THOR ABLESTAR DEB Visibility forecast

Observer location: undefined°, undefined

Span
Click to sort rows by Start time (UTC) header in descending order
Start Az.
Max El. time (UTC)
Max El. Az.
Max El.
End time (UTC)
End Az.
11 mins2024-12-21 17:58:53.188Z3.193° NNE2024-12-21 18:03:53.188Z48.24° ENE44.925°2024-12-21 18:09:53.188Z182.451° SSW
4 mins2024-12-21 19:46:53.188Z309.251° NW2024-12-21 19:48:53.188Z289.559° WNW13.596°2024-12-21 19:50:53.188Z270.007° WNW
11 mins2024-12-22 05:51:53.188Z169.089° S2024-12-22 05:56:53.188Z41.385° NE43.934°2024-12-22 06:02:53.188Z0.7° NNE
5 mins2024-12-22 07:40:53.188Z262.726° W2024-12-22 07:42:53.188Z283.187° WNW14.968°2024-12-22 07:45:53.188Z312.608° NW
|